STARLINK-11318, 61252

Orbit data source: Space-Track

STARLINK-11318, 61252 is a payload satellite owned by SpaceX/Seattle (US) in LEO that was launched on Wed, 25 Sep 2024 UTC via an FALCON 9 launch vehicle from the Air Force Western Test Range (AFWTR). Payload-class satellites include a variety of spacecraft equipped with specific instruments for various scientific and technological missions. These include communications satellites like Starlink; space stations such as the ISS; scientific satellites like the Hubble; Earth observation satellites from companies like Planet Labs, Umbra, and HawkEye 360; GPS; miniature CubeSats for education and research; and military/defense satellites.

Loading next visibility...
Identifier
61252, 2024-175K
Orbit
LEO
Last TLE update
1 day ago
Origin
Manufacturer
SpaceX/Seattle
Mission
Operational Commercial Communications
Bus & Motor
STARLINK V2M, Unknown motor
Mass
730 kg wet, ~700 kg dry
Launch date (UTC)
2024-09-25 (7 months ago)
Launch vehicle
FALCON 9
Launch site
Air Force Western Test Range (AFWTR)
Object type
Payload
Rocket body
Debris
Shape & HBR
Box + 2 Pan, 29 m
Radar Cross Section
36.964 m², Large (>1 m²)

Expand to show TLE details & history

TLE from 1 day ago
0 STARLINK-11318
1 61252U 24175K   25128.27154752  .00000564  00000-0  95159-5 0  9995
2 61252  53.1591 122.1184 0001104 103.5645 256.5496 15.69709841 36568
Epoch: 2025-05-08T06:31Z
Definitive object data (Epoch: 2025-05-08T06:31:01.705Z)
Latitude
-0.00003°
Longitude
158.01684°
Altitude
360.815 km
Speed
7.694 km/s
True Right ascension
08h 08m 28s
True Declination
0° 00' 00"
Sunlit
Object was in daylight at TLE epoch
Visualization TLE readout
Latitude
-3.50091°
Longitude
-24.24081°
Altitude
360.995 km
Speed
7.694 km/s
Apparent Right ascension
22h 31m 20s
Apparent Declination
-29° 29' 02"
Sunlit
Object is in daylight
Visualization observer readout
Local Sidereal Time
14:21:58
Azimuth
96.107° ESE
Elevation
-42.297°
Doppler factor
1
Orbital elements
Apogee altitude
360.732 km
Perigee altitude
359.244 km
Semi-major axis
6,738.125 km
Eccentricity
0.0001104
Inclination
53.1591°
RAAN
122.1184°
Arg. of periapsis
103.5645°
True anomaly
256.5373°
Mean anomaly
256.5496°
Eccentric anomaly
256.54345°
Mean motion
3.92405 °/min
BSTAR
0.0000095159
Orbital period
91.74 mins
Loading maneuver chart data...
Loading SW <> Apogee altitude chart data...
Loading historical data...
Loading historical data...
Loading historical data...
Loading historical data...
Loading historical data...
Loading historical data...
Loading historical data...

STARLINK-11318 Visibility forecast

Observer location: undefined°, undefined°

Span
Click to sort rows by Start time (UTC) header in descending order
Start Az.
Max El. time (UTC)
Max El. Az.
Max El.
End time (UTC)
End Az.
4 mins2025-05-09 09:00:10.389Z310.861° NW2025-05-09 09:02:10.389Z125.897° SE43.149°2025-05-09 09:04:10.389Z130.142° SE
4 mins2025-05-10 01:29:10.389Z198.118° SSW2025-05-10 01:31:10.389Z110.825° ESE32.946°2025-05-10 01:33:10.389Z64.89° ENE
|